Theta_e
300 300 300 300 300 299 299 298 298 297 297 298 297 296 296 296 296 296 296 296 296 297 297 297 298 298 299 303 302 301 301 303 308 309 312 311 310 311 312 312 313 315 315 314 314 314 314
302 301 300 299 299 299 298 297 297 297 296 296 296 295 295 295 296 296 296 296 296 297 297 297 298 300 303 304 302 301 301 301 302 308 311 312 312 311 311 312 312 313 313 314 314 314 314
302 300 299 298 299 298 297 297 297 296 296 296 295 295 295 295 296 296 296 296 297 297 297 297 298 300 304 304 301 301 301 300 300 303 309 311 313 314 312 314 313 313 314 315 315 315 316
300 300 301 300 299 299 298 298 297 298 297 295 295 295 295 295 296 296 296 296 297 297 297 298 299 303 306 301 302 303 308 304 302 300 303 305 309 311 312 310 311 312 313 313 314 315 315
303 302 300 301 301 300 297 301 301 299 296 295 294 294 294 295 295 296 296 296 297 298 298 300 306 306 307 302 309 310 309 310 309 307 302 304 307 309 309 310 311 311 311 312 313 315 315
303 302 302 302 301 299 295 301 300 298 296 294 294 294 294 295 295 295 296 296 297 299 300 300 306 307 306 306 303 308 306 307 309 308 308 305 307 310 310 310 309 309 309 310 311 313 315
304 303 302 301 300 297 295 295 296 296 294 294 294 294 294 294 295 295 296 298 300 303 298 300 300 300 300 300 300 301 303 307 309 308 308 306 308 310 310 310 309 309 309 311 313 312 311
302 301 301 300 298 297 299 299 297 295 293 293 294 294 294 294 294 295 297 299 298 297 299 299 300 301 302 302 303 305 302 306 308 311 309 309 309 309 310 310 309 310 308 308 309 311 312
302 300 298 297 296 296 296 296 294 293 293 293 293 293 294 293 294 295 296 297 297 298 301 302 302 304 305 304 306 306 305 304 307 310 312 310 311 310 309 310 310 311 311 311 311 312 314
299 298 297 297 296 295 293 293 293 293 292 293 292 292 293 292 297 294 298 296 296 299 305 302 304 306 303 306 308 304 306 306 305 306 310 313 312 312 312 311 311 311 311 311 311 315 316
299 298 298 296 295 293 293 293 293 292 292 292 292 292 292 292 293 298 295 295 298 302 301 301 303 306 302 302 303 305 306 307 308 306 310 312 312 312 312 312 311 311 314 314 315 316 315
299 298 297 295 294 294 293 293 293 292 292 291 292 293 293 295 295 295 294 295 300 305 299 300 301 303 302 301 304 306 306 306 306 307 309 310 312 312 312 312 313 314 315 315 314 315 317
299 298 297 295 295 294 296 295 293 292 291 292 293 293 293 293 296 293 294 299 302 299 299 299 301 301 301 301 305 308 308 308 308 307 310 310 311 313 313 315 314 314 314 316 318 318 315
297 297 295 294 294 295 295 293 292 291 292 293 293 294 293 293 293 293 295 300 297 297 298 301 300 300 300 304 304 307 308 308 308 308 308 311 311 312 313 313 314 314 314 315 314 316 316
297 295 296 294 295 294 292 292 291 292 292 293 293 294 295 294 294 295 298 299 297 299 299 299 299 299 301 304 302 302 304 306 308 309 308 308 309 310 312 312 313 315 317 315 318 317 319
294 295 295 294 294 293 292 292 292 291 292 293 293 295 296 295 295 298 299 296 297 297 297 297 297 298 301 301 300 301 303 307 309 310 310 311 311 313 313 313 314 316 315 317 318 319 318
294 295 296 295 292 293 293 292 292 293 293 292 293 296 295 293 295 297 298 297 297 297 297 297 297 298 298 299 298 300 302 304 303 306 307 311 313 315 314 315 315 316 317 317 318 319 321
295 296 295 293 292 292 292 292 292 293 292 293 295 298 294 294 297 297 297 297 296 297 297 298 298 299 299 300 301 302 304 304 304 303 305 312 313 315 315 314 314 315 315 316 318 320 318
294 294 294 293 294 294 294 292 292 292 293 294 296 295 294 295 297 297 297 296 296 297 297 298 298 298 299 298 299 301 302 303 302 303 308 313 313 314 315 313 314 314 316 315 314 314 317
293 293 293 292 293 294 293 293 292 291 293 294 296 297 295 296 295 296 296 297 297 296 298 298 299 299 300 299 300 300 300 302 300 301 302 309 312 311 312 313 314 314 313 312 314 315 314
293 293 292 292 293 294 293 291 290 290 293 294 295 296 295 297 297 296 296 296 297 298 298 298 299 300 300 300 300 301 303 304 303 305 309 311 312 311 309 309 309 309 309 310 311 310 310
293 292 291 293 294 293 290 292 291 293 293 294 295 296 294 295 295 295 296 296 297 298 298 298 300 300 299 301 301 300 303 304 308 306 307 308 310 309 307 308 308 307 307 308 308 308 310
294 292 292 293 293 291 292 292 293 293 293 295 294 294 294 295 296 296 297 296 296 297 297 297 299 300 300 301 301 301 302 304 305 307 307 308 309 307 307 306 306 306 307 308 308 309 311
293 292 292 293 291 292 293 294 291 294 294 295 294 294 294 296 296 296 296 296 296 296 298 297 299 301 301 301 303 304 305 306 306 307 307 308 307 308 307 307 306 311 309 310 309 311 308
292 292 291 293 293 293 293 291 291 293 294 294 294 295 295 296 296 296 296 296 295 296 298 297 297 296 298 301 306 305 305 306 306 307 307 308 308 308 308 306 305 310 310 309 310 310 304
292 292 293 294 291 290 291 293 294 294 295 295 294 294 294 296 297 295 296 295 297 297 298 297 297 299 299 304 305 304 305 305 305 308 307 307 307 308 307 307 305 309 308 309 311 314 301
291 291 294 293 292 291 291 292 293 294 295 295 295 295 294 295 296 295 297 297 296 296 297 297 297 300 301 305 304 305 305 305 305 304 306 307 306 307 306 307 308 305 306 307 314 308 299
291 292 293 294 293 292 291 292 292 293 294 295 295 295 295 294 296 295 295 296 295 296 298 297 301 300 302 304 305 304 305 306 306 307 307 308 309 309 307 308 309 299 306 308 301 298 296
292 293 292 292 291 291 291 291 292 293 294 295 295 295 295 294 296 295 294 295 295 295 295 297 298 300 300 302 302 304 304 306 306 308 305 308 303 305 304 303 298 296 296 294 295 295 294
Wind_Speed
16 13 11 9 8 7 6 7 8 8 8 9 10 13 15 16 17 18 20 20 19 20 19 19 20 20 18 7 13 13 11 11 9 6 7 10 14 16 16 12 19 19 20 18 20 21 23
15 13 12 10 9 8 7 6 5 6 8 9 11 13 14 16 17 18 18 19 19 21 20 18 18 18 9 10 12 10 11 7 12 12 9 12 9 14 16 16 16 11 14 19 15 19 21
15 13 11 10 9 7 5 4 4 5 7 9 11 11 13 14 16 18 19 19 19 20 19 17 16 15 11 18 16 17 19 21 16 15 17 12 14 10 4 12 15 14 16 17 18 20 19
15 13 11 9 8 7 4 3 4 5 7 8 10 11 14 15 17 19 20 20 21 18 16 16 14 11 10 15 13 10 8 12 18 21 20 20 11 14 18 14 12 10 14 14 10 11 12
14 11 10 8 7 5 3 3 3 4 7 9 10 12 15 18 20 22 22 22 19 14 12 13 6 5 9 4 1 3 8 8 6 9 20 10 10 16 13 15 15 14 16 14 11 11 7
15 12 12 12 10 5 4 5 4 5 8 9 11 14 16 18 20 21 22 22 13 10 7 10 4 8 6 4 14 10 9 11 6 5 8 15 12 12 13 14 16 15 19 12 14 6 10
16 17 16 13 8 7 6 7 7 8 8 9 11 13 15 17 18 22 24 12 9 2 16 10 19 20 28 17 19 16 12 13 13 11 14 19 14 19 22 20 17 12 14 15 9 8 17
20 18 16 15 12 8 7 6 6 5 7 8 10 12 12 14 14 18 17 10 6 8 13 19 18 18 16 12 9 11 9 11 20 18 14 11 22 20 15 14 17 20 21 20 17 13 14
20 17 16 13 11 10 9 7 6 4 6 8 11 11 11 13 10 15 12 12 9 9 7 11 4 5 4 3 5 7 3 10 21 19 19 19 4 17 17 16 17 18 18 14 15 14 19
17 15 13 11 10 9 8 5 2 3 6 8 9 11 11 11 6 11 4 11 8 7 5 3 3 3 4 5 6 16 7 10 13 26 21 18 20 7 15 19 16 17 14 14 14 10 7
17 15 14 11 9 7 5 3 1 2 5 8 8 9 10 11 6 5 8 9 4 1 6 3 4 4 11 5 17 4 7 8 19 21 15 17 10 18 16 13 14 13 5 10 9 10 12
17 14 12 11 7 6 4 3 2 3 5 7 7 8 11 9 7 6 7 4 0 5 8 2 2 6 13 17 13 11 7 7 11 16 20 21 3 10 14 14 12 5 7 8 8 8 10
18 17 13 8 8 6 5 4 1 2 5 6 6 8 10 9 4 6 5 1 5 6 5 3 7 12 17 16 12 7 8 8 9 13 19 19 13 5 8 11 9 14 11 5 7 5 6
17 15 11 10 9 8 6 3 2 2 5 5 6 7 8 8 7 4 3 4 8 4 7 14 16 21 17 9 8 10 5 9 12 15 12 17 15 14 10 12 8 16 13 6 8 6 3
17 13 10 9 9 6 6 4 1 3 5 6 5 5 8 9 7 4 2 5 6 7 5 10 18 14 9 3 11 9 10 10 9 17 14 16 17 10 11 10 11 9 9 5 4 5 5
16 15 10 9 10 7 7 3 1 4 5 6 5 6 9 9 7 3 2 4 4 6 11 10 14 9 11 16 16 12 10 5 11 10 10 6 11 12 10 11 6 7 9 4 5 5 6
18 16 14 9 8 10 6 4 2 4 5 5 4 4 2 6 6 1 1 2 8 7 9 6 9 14 16 17 14 15 8 8 3 13 11 9 8 12 12 11 16 7 7 5 2 3 3
17 16 13 10 13 9 6 4 3 3 4 5 4 2 2 4 2 0 2 5 9 10 8 10 8 12 12 11 11 9 9 7 9 12 10 11 4 10 12 5 6 6 7 9 5 5 1
17 16 11 11 12 9 6 4 2 2 4 6 3 2 4 3 1 2 3 7 8 12 9 5 9 10 11 12 7 9 9 9 16 5 7 6 6 8 8 5 4 7 4 5 4 0 7
11 13 12 11 14 8 7 5 3 3 4 6 3 1 1 3 3 4 7 5 8 10 13 9 11 15 14 12 9 11 13 11 20 16 25 18 2 4 7 8 8 6 9 8 6 4 4
6 11 8 16 11 9 7 5 4 7 5 5 3 2 2 1 2 6 5 5 11 9 5 17 6 8 12 6 11 13 9 10 11 12 3 2 9 10 9 8 5 5 7 9 9 7 6
9 6 15 11 10 7 6 8 8 7 6 4 3 1 1 2 4 4 2 4 9 12 7 13 10 19 19 14 14 16 14 13 4 11 9 11 5 5 6 4 3 3 5 8 8 8 8
10 7 15 13 12 10 10 9 7 6 6 3 4 2 1 1 2 3 2 6 15 13 10 14 19 17 13 13 12 16 18 23 14 8 7 5 1 2 3 2 5 4 2 1 1 5 9
13 14 16 17 12 11 10 9 10 8 6 4 5 4 1 1 4 5 10 12 11 14 13 22 15 4 5 11 13 17 17 20 13 9 7 3 5 3 2 4 2 7 6 5 7 10 12
15 16 16 15 14 13 11 10 12 10 9 7 6 3 1 3 6 5 10 11 15 12 13 15 13 16 15 9 3 3 2 3 4 6 3 2 1 2 1 2 2 7 8 8 10 4 11
17 21 17 15 11 12 15 14 12 11 9 11 8 8 4 4 1 6 13 8 10 12 10 4 20 6 2 3 3 1 2 3 3 3 6 1 2 3 0 1 1 7 13 16 11 2 12
19 20 15 13 11 13 14 14 13 11 10 12 11 9 6 5 8 4 8 9 9 10 7 11 20 11 13 3 2 4 3 4 2 2 1 2 2 2 2 2 4 11 19 28 3 6 11
21 19 16 16 15 12 14 14 13 12 11 12 12 11 10 5 14 13 12 11 10 7 6 13 7 11 8 7 5 3 3 4 3 4 4 3 3 2 2 3 2 24 5 6 7 9 9
21 17 14 14 15 15 15 14 14 13 12 12 11 9 8 11 10 12 15 20 17 14 11 8 5 5 4 4 5 4 2 2 4 2 6 2 5 4 5 3 8 12 12 10 12 11 11
Wind_Direction
226 226 224 224 233 245 253 278 288 300 316 322 328 329 331 333 333 327 330 331 326 320 321 320 317 316 325 299 272 288 279 262 259 223 213 202 205 219 236 244 242 246 257 253 251 250 258
217 217 223 231 241 249 261 266 282 305 310 317 329 334 339 343 343 339 341 339 329 320 318 315 313 314 314 274 274 272 268 273 245 241 227 220 220 231 268 260 246 270 266 256 255 251 256
216 222 220 215 215 224 229 250 290 308 317 328 338 348 352 350 345 342 341 338 328 321 316 310 309 304 274 266 274 273 272 258 241 236 230 228 236 231 250 255 254 269 263 261 253 255 247
212 207 209 211 204 203 206 243 290 312 330 351 345 351 353 352 347 343 343 338 329 323 317 317 312 291 259 284 283 291 307 282 267 238 235 226 228 247 249 253 258 263 258 264 254 242 249
205 203 204 205 203 196 259 271 270 309 332 341 348 354 358 353 349 345 346 342 333 327 332 331 331 276 278 309 7 328 327 306 285 243 227 211 217 234 226 235 250 240 262 246 261 222 266
200 205 198 202 216 240 235 207 256 293 313 331 352 360 0 353 348 345 350 347 338 341 13 337 293 290 242 311 313 275 308 307 245 191 190 191 205 216 219 225 229 239 241 254 251 211 270
191 201 207 215 240 256 228 227 249 277 307 340 357 3 1 353 349 351 355 13 359 281 330 267 278 285 285 306 301 281 275 255 248 221 211 196 203 216 218 217 243 260 267 265 265 268 292
198 207 220 234 239 213 194 228 253 288 326 344 1 359 359 350 352 2 14 59 38 316 305 304 273 261 285 287 298 331 242 240 228 224 204 189 224 218 228 238 237 243 255 263 277 282 269
212 214 219 219 209 205 217 234 265 311 337 347 357 350 354 351 357 12 35 30 349 334 279 296 257 264 312 202 281 309 263 234 240 234 211 215 243 214 216 216 220 232 243 255 266 287 280
210 201 197 199 207 204 203 209 250 320 340 354 356 344 347 359 31 8 21 348 334 325 278 215 214 183 29 284 246 310 256 248 230 234 225 232 233 186 196 218 217 238 220 245 252 262 263
199 199 195 201 192 187 188 189 219 341 354 8 2 348 351 7 358 8 328 339 336 324 285 96 144 157 330 311 311 320 283 253 250 222 219 222 216 213 223 213 209 240 179 220 231 253 279
193 194 187 178 191 177 169 149 105 23 19 25 7 351 358 4 4 337 341 350 100 240 250 150 280 325 323 319 317 290 295 223 278 248 222 234 204 203 223 224 202 144 191 222 240 250 252
186 195 196 197 180 170 156 157 105 35 31 29 11 358 360 10 345 348 360 40 235 243 44 16 338 327 313 317 313 313 307 255 251 212 215 219 201 176 171 145 183 193 195 201 209 204 248
196 216 200 183 182 173 180 177 117 34 40 27 13 10 12 37 20 38 41 220 249 350 315 348 332 317 299 352 324 320 289 308 236 233 226 200 202 203 179 197 177 198 204 237 226 208 187
182 176 188 181 174 178 177 159 130 48 33 39 21 48 45 19 35 102 256 233 325 344 348 328 320 310 291 228 348 317 297 276 251 211 229 210 226 191 189 192 181 174 215 261 264 245 269
195 181 195 194 179 160 159 159 131 61 46 48 38 103 45 46 63 46 252 294 287 324 323 316 298 290 312 313 317 323 298 69 325 274 305 241 185 189 163 167 169 210 152 180 209 218 226
172 180 192 207 203 171 163 158 118 76 61 42 73 103 55 25 55 22 299 308 299 316 322 310 308 297 293 299 292 300 270 320 68 328 325 254 221 166 161 200 172 170 191 220 246 249 309
178 178 198 213 157 159 158 161 130 85 52 58 75 103 329 15 181 313 291 329 321 310 312 275 278 270 275 293 297 295 276 289 17 335 299 211 250 164 174 102 187 194 192 194 239 149 196
186 196 198 186 171 163 169 179 162 106 79 69 77 88 2 68 25 354 336 303 282 303 316 286 281 276 289 294 296 289 296 298 312 325 270 224 213 150 142 140 175 197 150 139 109 13 226
180 198 211 206 175 169 182 199 211 156 103 84 97 128 124 79 55 356 335 325 315 310 297 271 277 287 279 275 262 272 290 323 311 275 255 279 171 234 183 133 138 169 179 182 192 220 282
191 193 188 166 175 186 210 235 197 157 138 109 81 93 41 39 119 330 320 294 315 328 299 303 274 270 307 285 287 252 279 275 277 332 257 232 116 99 88 108 134 173 194 195 211 247 267
201 215 171 180 191 207 195 151 141 152 143 127 118 192 133 287 279 293 290 321 314 324 311 304 280 308 308 279 268 297 307 303 14 344 8 354 89 60 98 112 142 256 251 260 262 284 273
212 223 191 196 203 192 168 161 177 173 160 139 157 122 48 133 275 278 2 308 316 317 303 306 298 289 268 271 280 273 279 280 275 318 332 24 26 81 106 67 323 258 104 338 274 298 314
235 235 214 201 203 198 209 198 209 194 185 186 159 139 151 311 285 321 308 309 319 322 299 310 335 308 9 329 297 271 258 267 266 272 264 344 44 17 125 240 140 84 50 62 0 47 11
245 211 193 192 206 220 208 195 186 202 208 202 209 171 221 286 303 305 325 323 318 319 293 305 327 303 306 302 252 225 226 239 50 32 260 314 286 119 343 341 26 136 44 359 337 27 14
204 197 193 202 217 210 201 191 191 204 219 221 231 237 222 291 197 301 320 332 338 344 330 307 345 350 5 264 268 3 63 358 79 91 48 62 343 326 47 286 133 48 344 324 299 145 6
188 187 199 202 201 200 198 198 200 200 214 220 234 242 236 254 286 264 329 326 331 336 309 318 345 353 357 337 35 26 61 335 41 50 81 121 102 257 155 295 100 354 325 307 318 7 14
191 200 200 207 204 213 209 207 205 206 214 212 232 241 238 232 285 269 275 286 312 327 326 327 326 14 0 17 5 11 10 31 260 47 335 2 312 151 179 245 154 357 360 29 333 41 37
199 194 199 214 222 223 214 205 205 207 210 210 223 246 258 249 267 269 277 279 269 265 278 317 321 339 3 338 11 309 349 341 336 60 32 70 21 345 28 51 55 39 55 43 50 58 44